Hourly Data Report for October 07, 2015

All times are specified in Local Standard Time (LST). Add 1 hour to adjust for Daylight Saving Time where and when it is observed.

CORAL HARBOUR A
NUNAVUT

64°11'36.000" N
83°21'34.000" W
62.20 m
2301002
71915
YZS

Download Data

Hourly Data (October 2015)
Hourly Data Report for October 7, 2015
Temp Definition
°C
Dew Point Temp Definition
°C
Rel Hum Definition
%
Wind Dir Definition
10's deg

Wind Spd Definition
km/h
Visibility Definition
km
Stn Press Definition
kPa
Hmdx Definition


Wind Chill Definition


Weather Definition


TIME
00:00 Legend Double Dagger -3.6 -6.7 79 3 19 24.1 99.82   -10 LegendNANA
01:00 Legend Double Dagger -3.6 -6.2 82 3 13 24.1 99.79   -8 Cloudy
02:00 Legend Double Dagger -3.3 -5.9 82 4 14 24.1 99.76   -8 LegendNANA
03:00 Legend Double Dagger -3.1 -6.1 80 3 14 24.1 99.75   -8 LegendNANA
04:00 Legend Double Dagger -3.1 -6.1 80 1 17 24.1 99.73   -9 Cloudy
05:00 Legend Double Dagger -2.9 -5.9 80 35 16 24.1 99.72   -8 LegendNANA
06:00 Legend Double Dagger -4.0 -6.3 84 36 16 24.1 99.71   -10 LegendNANA
07:00 Legend Double Dagger -5.1 -6.8 88 33 16 24.1 99.70   -11 Mainly Clear
08:00 Legend Double Dagger -4.6 -6.3 88 33 15 24.1 99.68   -10 LegendNANA
09:00 Legend Double Dagger -2.3 -6.0 76 33 18 24.1 99.68   -8 LegendNANA
10:00 Legend Double Dagger -1.9 -5.1 79 34 18 19.3 99.69   -7 Snow
11:00 Legend Double Dagger -0.8 -5.2 72 35 25 24.1 99.69   -7 Snow
12:00 Legend Double Dagger -0.9 -5.3 72 35 34 24.1 99.68   -8 Snow
13:00 Legend Double Dagger -0.9 -5.7 70 35 41 24.1 99.72   -9 Snow
14:00 Legend Double Dagger -1.4 -7.0 66 35 42 24.1 99.76   -9 LegendNANA
15:00 Legend Double Dagger -2.2 -7.5 67 34 38 24.1 99.82   -10 LegendNANA
16:00 Legend Double Dagger -2.6 -7.5 69 34 40 24.1 99.86   -11 Mostly Cloudy
17:00 Legend Double Dagger -3.7 -9.2 66 34 35 24.1 99.96   -12 LegendNANA
18:00 Legend Double Dagger -4.9 -9.0 73 34 30 24.1 99.99   -13 LegendNANA
19:00 Legend Double Dagger -5.9 -9.1 78 32 30 24.1 100.02   -14 Mainly Clear
20:00 Legend Double Dagger -6.8 -9.9 79 33 24 24.1 100.05   -14 LegendNANA
21:00 Legend Double Dagger -7.6 -10.0 83 32 21 24.1 100.07   -15 LegendNANA
22:00 Legend Double Dagger -8.2 -10.4 84 33 23 24.1 100.08   -16 Clear
23:00 Legend Double Dagger -8.7 -11.1 83 34 22 24.1 100.09   -17 LegendNANA

Notes on Data Quality.

Legend

  • E = Estimated
  • M = Missing
  • NA = Not Available
  • ‡ = Partner data that is not subject to review by the National Climate Archives
Date modified: